| time (UTC) | temp C | wind direction | speed KPH | gust KPH | rain 1hr cm | rain 24hr cm | rain mn cm | humidity % | barometer mb |
| 20260507120035 | 3 | 293 | 0.0 | 4.8 | 0.00 | 0.61 | 0.00 | 80 | 1013.8 |
| 20260507114534 | 3 | 263 | 3.2 | 9.7 | 0.00 | 0.76 | 0.00 | 85 | 1013.7 |
| 20260507113029 | 2 | 294 | 1.6 | 3.2 | 0.00 | 0.76 | 0.00 | 90 | 1013.6 |
| 20260507111529 | 2 | 294 | 1.6 | 4.8 | 0.00 | 0.76 | 0.00 | 92 | 1013.6 |
| 20260507110029 | 1 | 295 | 0.0 | 3.2 | 0.00 | 0.76 | 0.00 | 93 | 1013.6 |
| 20260507104528 | 1 | 295 | 1.6 | 4.8 | 0.00 | 0.89 | 0.00 | 94 | 1013.4 |
| 20260507103044 | 1 | 308 | 1.6 | 4.8 | 0.00 | 0.89 | 0.00 | 95 | 1013.3 |
| 20260507101533 | 0 | 309 | 1.6 | 3.2 | 0.00 | 0.89 | 0.00 | 94 | 1013.1 |
| 20260507100031 | 0 | 310 | 0.0 | 3.2 | 0.00 | 0.89 | 0.00 | 94 | 1013.1 |
| 20260507094532 | 0 | 310 | 0.0 | 3.2 | 0.00 | 0.99 | 0.00 | 94 | 1012.9 |
| 20260507093025 | 0 | 310 | 0.0 | 1.6 | 0.00 | 0.99 | 0.00 | 94 | 1013.0 |
| 20260507091535 | 1 | 310 | 0.0 | 1.6 | 0.00 | 0.99 | 0.00 | 93 | 1012.8 |
| 20260507090029 | 1 | 310 | 0.0 | 1.6 | 0.00 | 0.99 | 0.00 | 93 | 1013.1 |
| 20260507084537 | 1 | 310 | 0.0 | 1.6 | 0.00 | 1.09 | 0.00 | 92 | 1013.2 |
| 20260507083022 | 1 | 310 | 0.0 | 0.0 | 0.00 | 1.09 | 0.00 | 92 | 1013.1 |
| 20260507081520 | 1 | 310 | 0.0 | 1.6 | 0.00 | 1.09 | 0.00 | 92 | 1013.3 |
| 20260507080019 | 1 | 310 | 0.0 | 0.0 | 0.00 | 1.09 | 0.00 | 92 | 1013.2 |
| 20260507074518 | 2 | 310 | 0.0 | 0.0 | 0.00 | 1.17 | 0.00 | 90 | 1013.2 |
| 20260507073015 | 2 | 310 | 0.0 | 3.2 | 0.00 | 1.17 | 0.00 | 89 | 1013.1 |
| 20260507071520 | 2 | 310 | 0.0 | 3.2 | 0.00 | 1.17 | 0.00 | 88 | 1013.0 |
| 20260507070014 | 2 | 310 | 1.6 | 3.2 | 0.00 | 1.17 | 0.00 | 88 | 1012.9 |
| 20260507064511 | 2 | 310 | 0.0 | 3.2 | 0.00 | 1.19 | 0.00 | 87 | 1012.8 |
| 20260507063009 | 2 | 310 | 0.0 | 4.8 | 0.00 | 1.19 | 0.00 | 87 | 1013.0 |
| 20260507061508 | 2 | 310 | 1.6 | 4.8 | 0.00 | 1.19 | 0.00 | 87 | 1013.4 |
| 20260507060012 | 2 | 310 | 1.6 | 4.8 | 0.00 | 1.19 | 0.00 | 87 | 1013.2 |
| 20260507054506 | 2 | 310 | 1.6 | 4.8 | 0.00 | 1.19 | 0.00 | 88 | 1013.2 |
| 20260507053007 | 2 | 310 | 3.2 | 6.4 | 0.00 | 1.19 | 0.00 | 89 | 1013.3 |
| 20260507051504 | 3 | 305 | 3.2 | 6.4 | 0.00 | 1.19 | 0.00 | 88 | 1013.3 |
| 20260507050014 | 3 | 305 | 1.6 | 4.8 | 0.00 | 1.19 | 0.00 | 89 | 1013.3 |
| 20260507044503 | 3 | 304 | 3.2 | 6.4 | 0.00 | 1.19 | 0.00 | 90 | 1013.5 |
| 20260507043002 | 3 | 315 | 3.2 | 4.8 | 0.00 | 1.19 | 0.00 | 91 | 1013.5 |
| 20260507041605 | 3 | 314 | 3.2 | 8.0 | 0.00 | 1.19 | 0.00 | 92 | 1013.3 |
| 20260507040056 | 3 | 317 | 4.8 | 8.0 | 0.00 | 1.19 | 0.00 | 93 | 1013.3 |
| 20260507034555 | 4 | 312 | 4.8 | 6.4 | 0.00 | 1.19 | 1.19 | 94 | 1013.0 |
| 20260507033053 | 4 | 312 | 1.6 | 6.4 | 0.00 | 1.19 | 1.19 | 94 | 1012.7 |
| 20260507031549 | 4 | 312 | 1.6 | 4.8 | 0.00 | 1.19 | 1.19 | 94 | 1012.6 |
| 20260507030048 | 5 | 312 | 1.6 | 6.4 | 0.00 | 1.19 | 1.19 | 94 | 1012.2 |
| 20260507024551 | 5 | 309 | 1.6 | 4.8 | 0.00 | 1.19 | 1.19 | 95 | 1012.3 |
| 20260507023049 | 5 | 307 | 3.2 | 4.8 | 0.00 | 1.19 | 1.19 | 95 | 1012.4 |
| 20260507021600 | 5 | 306 | 3.2 | 6.4 | 0.00 | 1.19 | 1.19 | 95 | 1012.7 |
| 20260507020106 | 5 | 303 | 3.2 | 8.0 | 0.00 | 1.19 | 1.19 | 96 | 1012.8 |
| 20260507014606 | 5 | 310 | 1.6 | 8.0 | 0.00 | 1.19 | 1.19 | 96 | 1012.6 |
| 20260507013050 | 5 | 307 | 4.8 | 8.0 | 0.00 | 1.19 | 1.19 | 97 | 1012.5 |
| 20260507011556 | 5 | 301 | 3.2 | 6.4 | 0.00 | 1.19 | 1.19 | 97 | 1012.6 |
| 20260507010047 | 5 | 298 | 3.2 | 6.4 | 0.00 | 1.19 | 1.19 | 97 | 1012.5 |
| 20260507004544 | 6 | 301 | 3.2 | 6.4 | 0.00 | 1.19 | 1.19 | 97 | 1012.5 |
| 20260507003042 | 6 | 308 | 1.6 | 4.8 | 0.00 | 1.19 | 1.19 | 97 | 1012.2 |
| 20260507001555 | 6 | 312 | 1.6 | 4.8 | 0.00 | 1.19 | 1.19 | 97 | 1011.8 |
| 20260507000048 | 6 | 312 | 1.6 | 4.8 | 0.00 | 1.19 | 1.19 | 97 | 1011.5 |
| 20260506234549 | 6 | 312 | 1.6 | 3.2 | 0.00 | 1.22 | 1.19 | 97 | 1011.3 |
| 20260506233041 | 6 | 312 | 0.0 | 3.2 | 0.00 | 1.22 | 1.19 | 97 | 1011.1 |
| 20260506231537 | 6 | 312 | 1.6 | 4.8 | 0.03 | 1.22 | 1.19 | 97 | 1011.1 |
| 20260506230037 | 6 | 312 | 0.0 | 3.2 | 0.03 | 1.22 | 1.19 | 97 | 1010.8 |
| 20260506224536 | 6 | 312 | 0.0 | 6.4 | 0.03 | 1.22 | 1.19 | 97 | 1010.8 |
| 20260506223032 | 6 | 312 | 3.2 | 6.4 | 0.03 | 1.22 | 1.19 | 97 | 1010.7 |
| 20260506221533 | 6 | 12 | 3.2 | 8.0 | 0.00 | 1.19 | 1.17 | 97 | 1010.5 |
| 20260506220032 | 6 | 310 | 3.2 | 6.4 | 0.00 | 1.19 | 1.17 | 97 | 1010.3 |
| 20260506214529 | 6 | 306 | 1.6 | 4.8 | 0.00 | 1.27 | 1.17 | 97 | 1010.2 |
| 20260506213035 | 6 | 305 | 0.0 | 4.8 | 0.00 | 1.27 | 1.17 | 97 | 1010.0 |
| 20260506211538 | 6 | 321 | 3.2 | 6.4 | 0.00 | 1.27 | 1.17 | 97 | 1009.8 |
| 20260506210034 | 6 | 343 | 1.6 | 8.0 | 0.00 | 1.27 | 1.17 | 97 | 1009.7 |
| 20260506204531 | 6 | 319 | 4.8 | 9.7 | 0.00 | 1.27 | 1.17 | 97 | 1009.6 |
| 20260506203025 | 6 | 322 | 1.6 | 4.8 | 0.00 | 1.27 | 1.17 | 97 | 1009.4 |
| 20260506201533 | 6 | 317 | 0.0 | 6.4 | 0.00 | 1.27 | 1.17 | 97 | 1009.2 |
| 20260506200029 | 6 | 338 | 1.6 | 6.4 | 0.00 | 1.27 | 1.17 | 97 | 1009.0 |
| 20260506194525 | 6 | 320 | 3.2 | 6.4 | 0.00 | 1.27 | 1.17 | 97 | 1009.0 |
| 20260506193036 | 6 | 326 | 3.2 | 6.4 | 0.00 | 1.27 | 1.17 | 97 | 1008.8 |
| 20260506191522 | 6 | 338 | 1.6 | 4.8 | 0.00 | 1.27 | 1.17 | 97 | 1008.4 |
| 20260506190021 | 6 | 339 | 3.2 | 6.4 | 0.00 | 1.27 | 1.17 | 97 | 1008.4 |
| 20260506184524 | 6 | 359 | 1.6 | 4.8 | 0.00 | 1.37 | 1.17 | 97 | 1008.4 |
| 20260506183015 | 6 | 4 | 1.6 | 6.4 | 0.00 | 1.37 | 1.17 | 97 | 1008.2 |
| 20260506181533 | 6 | 348 | 3.2 | 6.4 | 0.00 | 1.37 | 1.17 | 97 | 1008.1 |
| 20260506180014 | 6 | 348 | 3.2 | 6.4 | 0.03 | 1.37 | 1.17 | 96 | 1008.1 |
| 20260506174515 | 6 | 349 | 3.2 | 6.4 | 0.03 | 1.37 | 1.17 | 96 | 1007.7 |
| 20260506173031 | 5 | 344 | 3.2 | 6.4 | 0.05 | 1.37 | 1.17 | 96 | 1007.4 |
| 20260506171520 | 5 | 16 | 3.2 | 6.4 | 0.08 | 1.37 | 1.17 | 96 | 1007.2 |
| 20260506170020 | 5 | 330 | 3.2 | 6.4 | 0.10 | 1.37 | 1.17 | 96 | 1007.0 |
| 20260506164521 | 5 | 350 | 1.6 | 4.8 | 0.13 | 1.35 | 1.14 | 96 | 1007.0 |
| 20260506163017 | 5 | 359 | 1.6 | 6.4 | 0.10 | 1.32 | 1.12 | 96 | 1007.0 |
| 20260506161513 | 5 | 4 | 4.8 | 8.0 | 0.08 | 1.30 | 1.09 | 95 | 1007.2 |
| 20260506160010 | 5 | 322 | 4.8 | 9.7 | 0.08 | 1.27 | 1.07 | 95 | 1006.9 |
| 20260506154507 | 6 | 4 | 3.2 | 6.4 | 0.08 | 1.24 | 1.04 | 95 | 1006.5 |
| 20260506153006 | 7 | 10 | 1.6 | 4.8 | 0.05 | 1.22 | 1.02 | 94 | 1006.0 |
| 20260506151507 | 10 | 64 | 0.0 | 6.4 | 0.08 | 1.22 | 1.02 | 93 | 1005.8 |
| 20260506150010 | 11 | 185 | 1.6 | 8.0 | 0.05 | 1.19 | 0.99 | 96 | 1005.7 |
| 20260506144503 | 11 | 216 | 1.6 | 11.3 | 0.05 | 1.17 | 0.97 | 96 | 1005.6 |
| 20260506143002 | 11 | 249 | 1.6 | 6.4 | 0.05 | 1.17 | 0.97 | 96 | 1005.8 |
| 20260506141501 | 11 | 204 | 1.6 | 4.8 | 0.08 | 1.14 | 0.94 | 96 | 1005.3 |
| 20260506140003 | 11 | 185 | 0.0 | 4.8 | 0.10 | 1.14 | 0.94 | 96 | 1005.1 |
| 20260506134501 | 11 | 216 | 0.0 | 9.7 | 0.10 | 1.12 | 0.91 | 96 | 1005.1 |
| 20260506133001 | 11 | 206 | 3.2 | 8.0 | 0.15 | 1.12 | 0.91 | 96 | 1005.3 |
| 20260506131503 | 11 | 245 | 1.6 | 12.9 | 0.15 | 1.07 | 0.86 | 95 | 1005.5 |
| 20260506130002 | 11 | 304 | 3.2 | 11.3 | 0.25 | 1.04 | 0.84 | 95 | 1005.4 |
| 20260506124502 | 11 | 183 | 3.2 | 16.1 | 0.28 | 1.02 | 0.81 | 95 | 1005.4 |
| 20260506121558 | 11 | 253 | 4.8 | 17.7 | 0.25 | 0.91 | 0.71 | 95 | 1005.7 |